Retour au catalogue

FENGYUN 1C DEB

ActifSSO
NORAD 29965·DEBRIS·🇨🇳 China

Lancé May 10, 1999 depuis Taiyuan Satellite Launch Center

Loading…

Prochains Passages (prochaines 24 heures)

TLE

FraisSource: Space-Track

Époque: Sep 14, 2026, 12:15 UTC

1 29965U 99025KP  26257.51049991  .00000290  00000-0  22262-3 0  9994
2 29965  98.9801 250.0555 0145707  30.6013 129.2914 13.95906390  1135

Suivez FENGYUN 1C DEB en temps réel avec AllMySat

Download on the App Store